GW3791 Weather Reports


Display with metric or nautical units.
time (UTC)temp
F
wind
direction
speed
MPH
gust
MPH
rain 1hr
in
rain 24hr
in
rain mn
in
humidity
%
barometer
mb
20260506231026 60 325 0.0 1.0 0.00 0.22 0.22 99 1007.6
20260506230522 60 235 0.0 0.0 0.00 0.22 0.22 99 1007.6
20260506230019 60 354 0.0 3.0 0.00 0.22 0.22 99 1007.6
20260506225516 60 173 0.0 6.0 0.00 0.22 0.22 99 1007.7
20260506225007 60 312 0.0 2.0 0.00 0.22 0.22 99 1007.7
20260506224504 60 85 2.0 3.0 0.00 0.22 0.22 99 1007.8
20260506224000 60 325 2.0 5.0 0.00 0.22 0.22 99 1007.6
20260506223456 60 68 0.0 2.0 0.00 0.22 0.22 99 1007.6
20260506222953 60 249 0.0 4.0 0.00 0.22 0.22 99 1007.7
20260506222449 60 290 0.0 3.0 0.00 0.22 0.22 99 1007.7
20260506221946 60 54 3.0 4.0 0.00 0.22 0.22 99 1007.6
20260506221443 60 284 1.0 3.0 0.00 0.22 0.22 99 1007.8
20260506220941 60 38 1.0 2.0 0.00 0.22 0.22 99 1007.5
20260506220437 60 339 2.0 5.0 0.00 0.22 0.22 99 1007.5
20260506215933 60 115 0.0 3.0 0.00 0.22 0.22 99 1007.6
20260506215429 60 236 0.0 4.0 0.00 0.22 0.22 99 1007.3
20260506214925 60 285 0.0 2.0 0.00 0.22 0.22 99 1007.6
20260506214422 60 293 1.0 4.0 0.02 0.22 0.22 99 1007.3
20260506213920 60 131 1.0 3.0 0.02 0.22 0.22 99 1007.2
20260506213418 60 283 2.0 4.0 0.00 0.22 0.22 99 1007.0
20260506212915 60 275 3.0 5.0 0.00 0.22 0.22 99 1007.2
20260506212411 59 299 3.0 5.0 0.00 0.22 0.22 99 1007.4
20260506211906 59 268 2.0 7.0 0.00 0.22 0.22 99 1007.0
20260506211402 59 330 5.0 7.0 0.00 0.22 0.22 99 1007.3
20260506210859 59 26 2.0 5.0 0.00 0.22 0.22 99 1007.0
20260506210356 59 29 2.0 6.0 0.00 0.22 0.22 99 1007.2
20260506205853 60 135 3.0 7.0 0.00 0.22 0.22 99 1007.2
20260506205349 60 350 3.0 5.0 0.00 0.22 0.22 99 1006.9
20260506204846 60 14 0.0 3.0 0.00 0.22 0.22 99 1006.6
20260506204344 60 321 0.0 3.0 0.00 0.22 0.22 99 1006.8
20260506203841 59 312 2.0 4.0 0.00 0.22 0.22 99 1006.8
20260506203338 59 322 2.0 7.0 0.00 0.22 0.22 99 1006.8
20260506202834 59 282 3.0 7.0 0.00 0.22 0.22 99 1006.8
20260506202332 59 282 2.0 3.0 0.00 0.22 0.22 99 1006.8
20260506201828 59 25 2.0 6.0 0.00 0.22 0.22 99 1006.8
20260506201326 59 14 1.0 5.0 0.00 0.22 0.22 99 1006.7
20260506200822 59 259 2.0 3.0 0.00 0.22 0.22 99 1006.9
20260506200318 59 356 2.0 4.0 0.00 0.22 0.22 99 1006.9
20260506195814 59 30 1.0 4.0 0.00 0.22 0.22 99 1006.9
20260506195312 59 117 1.0 3.0 0.00 0.22 0.22 99 1007.2
20260506194809 59 172 3.0 8.0 0.00 0.22 0.22 99 1007.0
20260506194305 59 0 2.0 3.0 0.00 0.22 0.22 99 1006.9
20260506193803 59 316 1.0 3.0 0.02 0.22 0.22 99 1007.2
20260506193259 59 266 1.0 5.0 0.02 0.22 0.22 99 1007.4
20260506192755 59 263 2.0 4.0 0.00 0.21 0.21 99 1007.5
20260506192253 59 287 1.0 4.0 0.02 0.21 0.21 99 1007.7
20260506191750 59 349 2.0 3.0 0.05 0.21 0.21 99 1007.6
20260506191246 59 112 4.0 5.0 0.02 0.20 0.20 99 1007.5
20260506190744 59 209 1.0 4.0 0.02 0.20 0.20 99 1007.7
20260506190240 59 272 5.0 9.0 0.07 0.20 0.20 99 1007.7
20260506185737 59 347 3.0 4.0 0.07 0.19 0.19 99 1007.9
20260506185233 59 69 2.0 6.0 0.05 0.18 0.18 99 1007.7
20260506184731 59 267 2.0 5.0 0.07 0.18 0.18 99 1007.6
20260506184228 59 344 3.0 6.0 0.09 0.18 0.18 99 1007.9
20260506183724 59 133 2.0 7.0 0.07 0.17 0.17 99 1007.7
20260506183220 59 330 2.0 3.0 0.05 0.16 0.16 99 1007.9
20260506182718 59 68 3.0 4.0 0.05 0.15 0.15 99 1007.9
20260506182215 59 281 2.0 6.0 0.05 0.15 0.15 99 1008.0
20260506181713 59 107 5.0 14.0 0.05 0.15 0.15 98 1007.9
20260506181210 59 27 1.0 7.0 0.05 0.14 0.14 98 1008.1
20260506180707 60 316 4.0 6.0 0.05 0.14 0.14 98 1008.2
20260506180203 59 253 1.0 7.0 0.07 0.13 0.13 98 1008.3
20260506175659 59 335 1.0 5.0 0.07 0.13 0.13 98 1008.0
20260506175156 59 110 6.0 8.0 0.05 0.12 0.12 97 1008.1
20260506174649 59 124 5.0 7.0 0.00 0.11 0.11 97 1008.3
20260506174145 59 22 2.0 4.0 0.00 0.11 0.11 97 1008.3
20260506173643 59 279 3.0 8.0 0.00 0.11 0.11 97 1008.2
20260506173134 59 287 3.0 7.0 0.00 0.11 0.11 97 1008.2
20260506172631 59 358 5.0 6.0 0.00 0.11 0.11 98 1008.2
20260506172127 59 190 2.0 7.0 0.00 0.11 0.11 98 1008.2
20260506171625 59 95 1.0 5.0 0.02 0.11 0.11 98 1008.1
20260506171122 60 318 3.0 4.0 0.02 0.11 0.11 97 1008.0
20260506170619 59 1 4.0 6.0 0.02 0.11 0.11 98 1008.2
20260506170111 59 55 2.0 3.0 0.02 0.11 0.11 97 1008.3
20260506165609 60 294 3.0 5.0 0.00 0.11 0.11 97 1008.2
20260506165059 60 352 3.0 7.0 0.02 0.11 0.11 97 1008.2
20260506164557 59 358 4.0 7.0 0.05 0.11 0.11 97 1008.0
20260506164054 60 12 3.0 6.0 0.05 0.10 0.10 97 1008.3
20260506163549 60 240 4.0 7.0 0.05 0.10 0.10 97 1008.1
20260506163045 60 347 2.0 5.0 0.05 0.09 0.09 97 1008.2
20260506162541 60 175 1.0 5.0 0.05 0.09 0.09 97 1008.2
20260506162034 60 18 2.0 5.0 0.09 0.09 0.09 97 1008.5
20260506161531 60 15 2.0 6.0 0.12 0.08 0.08 96 1008.8
20260506161028 60 59 0.0 6.0 0.09 0.07 0.07 96 1008.9
20260506160525 60 39 5.0 9.0 0.09 0.06 0.06 96 1009.2
20260506160022 60 23 2.0 8.0 0.07 0.05 0.05 95 1009.2
20260506155521 61 13 3.0 5.0 0.02 0.04 0.04 95 1009.2
20260506153652 62 347 1.0 4.0 0.02 0.04 0.04 94 1009.0
20260506153149 62 62 2.0 7.0 0.02 0.03 0.03 93 1009.1
20260506152646 62 32 2.0 3.0 0.05 0.03 0.03 92 1009.2
20260506152143 62 353 0.0 3.0 0.07 0.03 0.03 92 1009.3
20260506151642 62 89 1.0 4.0 0.07 0.02 0.02 91 1009.2
20260506151138 62 353 3.0 4.0 0.05 0.02 0.02 90 1009.2
20260506150635 62 15 2.0 4.0 0.05 0.01 0.01 89 1009.0
20260506150132 62 337 3.0 9.0 0.05 0.01 0.01 87 1009.3
20260506145629 63 355 2.0 13.0 0.00 0.00 0.00 85 1009.4
20260506145126 63 10 2.0 4.0 0.00 0.00 0.00 82 1009.7
20260506144624 63 176 2.0 7.0 0.00 0.00 0.00 81 1009.6
20260506144120 63 285 1.0 10.0 0.00 0.00 0.00 81 1009.4
20260506143618 63 277 2.0 5.0 0.00 0.00 0.00 81 1009.5
20260506143116 63 46 3.0 7.0 0.00 0.00 0.00 81 1009.8
20260506142614 63 228 1.0 7.0 0.00 0.00 0.00 81 1009.5
20260506142112 64 326 3.0 6.0 0.00 0.00 0.00 81 1009.4
20260506141609 64 194 3.0 7.0 0.00 0.00 0.00 80 1009.2
20260506141107 63 337 4.0 6.0 0.00 0.00 0.00 80 1009.0
20260506140604 63 15 4.0 5.0 0.00 0.00 0.00 80 1009.3
20260506135558 63 320 5.0 7.0 0.00 0.00 0.00 80 1009.4
20260506135054 63 333 3.0 4.0 0.00 0.00 0.00 80 1009.5
20260506134551 63 86 1.0 6.0 0.00 0.00 0.00 80 1009.3
20260506134047 63 352 2.0 7.0 0.00 0.00 0.00 80 1009.4
20260506133544 63 346 2.0 6.0 0.00 0.00 0.00 80 1009.6
20260506133041 64 27 3.0 7.0 0.00 0.00 0.00 79 1009.6
20260506132539 64 80 7.0 9.0 0.00 0.00 0.00 79 1009.9
20260506132036 64 279 3.0 15.0 0.00 0.00 0.00 79 1009.6
20260506131533 64 244 1.0 10.0 0.00 0.00 0.00 78 1009.6
20260506131029 64 60 2.0 11.0 0.00 0.00 0.00 78 1009.5
20260506130526 65 269 0.0 6.0 0.00 0.00 0.00 77 1009.2
20260506130024 64 21 2.0 6.0 0.00 0.00 0.00 78 1009.6
20260506125522 64 4 4.0 10.0 0.00 0.00 0.00 79 1009.6
20260506125019 63 144 2.0 8.0 0.00 0.00 0.00 79 1009.5
20260506124517 63 320 4.0 6.0 0.00 0.00 0.00 79 1009.5
20260506124015 64 45 2.0 12.0 0.00 0.00 0.00 79 1009.2
20260506123512 64 351 3.0 6.0 0.00 0.00 0.00 79 1009.2
20260506123010 64 287 2.0 12.0 0.00 0.00 0.00 78 1009.2
20260506122506 64 295 3.0 6.0 0.00 0.00 0.00 79 1009.2
20260506122005 64 343 8.0 11.0 0.00 0.00 0.00 79 1009.3
20260506121502 63 292 4.0 8.0 0.00 0.00 0.00 79 1009.5
20260506120958 63 36 3.0 9.0 0.00 0.00 0.00 80 1009.4
20260506120456 63 121 2.0 9.0 0.00 0.00 0.00 80 1009.4
20260506115953 63 172 1.0 6.0 0.00 0.00 0.00 81 1009.5
20260506115451 63 137 1.0 11.0 0.00 0.00 0.00 81 1009.4
20260506114949 63 276 3.0 6.0 0.00 0.00 0.00 81 1009.4
20260506114446 63 156 2.0 4.0 0.00 0.00 0.00 81 1009.4
20260506113945 63 294 0.0 3.0 0.00 0.00 0.00 81 1009.6
20260506113442 63 14 3.0 5.0 0.00 0.00 0.00 82 1009.6
20260506112938 63 21 1.0 6.0 0.00 0.00 0.00 81 1009.4
20260506112436 63 320 5.0 9.0 0.00 0.00 0.00 82 1009.7
20260506111933 63 24 2.0 6.0 0.00 0.00 0.00 82 1009.5
20260506111431 62 262 3.0 11.0 0.00 0.00 0.00 82 1009.4
20260506110928 62 53 2.0 10.0 0.00 0.00 0.00 82 1009.5
20260506110426 62 213 3.0 9.0 0.00 0.00 0.00 83 1009.2
20260506105922 62 10 2.0 9.0 0.00 0.00 0.00 83 1009.3
20260506105418 62 21 5.0 7.0 0.00 0.00 0.00 83 1009.4
20260506104916 62 15 3.0 9.0 0.00 0.00 0.00 83 1009.3
20260506104414 62 13 3.0 7.0 0.00 0.00 0.00 83 1009.3
20260506103912 62 319 2.0 7.0 0.00 0.00 0.00 83 1009.1
20260506103409 62 55 4.0 6.0 0.00 0.00 0.00 83 1009.0
20260506102906 62 113 0.0 11.0 0.00 0.00 0.00 83 1009.1
20260506102404 62 29 0.0 4.0 0.00 0.00 0.00 83 1009.3
20260506101901 62 102 0.0 7.0 0.00 0.00 0.00 82 1009.4
20260506101357 62 0 0.0 7.0 0.00 0.00 0.00 82 1009.2
20260506100854 62 244 3.0 7.0 0.00 0.00 0.00 82 1009.1
20260506100353 62 286 5.0 9.0 0.00 0.00 0.00 82 1008.8
20260506095850 62 10 4.0 7.0 0.00 0.00 0.00 82 1009.0
20260506095348 63 40 4.0 7.0 0.00 0.00 0.00 82 1009.3
20260506094844 63 232 3.0 16.0 0.00 0.00 0.00 81 1009.4
20260506094343 62 252 4.0 9.0 0.00 0.00 0.00 82 1009.1
20260506093841 62 11 5.0 10.0 0.00 0.00 0.00 82 1009.1
20260506093338 62 48 1.0 7.0 0.00 0.00 0.00 81 1009.0
20260506092836 63 337 4.0 7.0 0.00 0.00 0.00 81 1008.9
20260506092333 63 316 3.0 5.0 0.00 0.00 0.00 81 1009.0
20260506091830 63 331 1.0 5.0 0.00 0.00 0.00 81 1009.2
20260506091328 63 349 2.0 4.0 0.00 0.00 0.00 81 1009.3
20260506090825 63 66 1.0 5.0 0.00 0.00 0.00 81 1009.2
20260506090322 63 300 3.0 6.0 0.00 0.00 0.00 80 1009.0
20260506085819 63 351 4.0 6.0 0.00 0.00 0.00 81 1009.3
20260506085315 63 16 3.0 18.0 0.00 0.00 0.00 80 1009.0
20260506084812 62 63 4.0 7.0 0.00 0.00 0.00 80 1009.3
20260506084308 62 345 3.0 4.0 0.00 0.00 0.00 80 1009.2
20260506083805 62 331 6.0 6.0 0.00 0.00 0.00 80 1009.3
20260506083303 62 2 4.0 5.0 0.00 0.00 0.00 79 1009.4
20260506082800 62 283 4.0 7.0 0.00 0.00 0.00 79 1009.2
20260506082256 62 37 2.0 4.0 0.00 0.00 0.00 78 1009.3
20260506081753 63 139 2.0 9.0 0.00 0.00 0.00 78 1009.3
20260506081251 63 26 2.0 5.0 0.00 0.00 0.00 77 1009.4
20260506080749 63 64 1.0 7.0 0.00 0.00 0.00 76 1009.5
20260506080245 63 30 2.0 8.0 0.00 0.00 0.00 76 1009.6
20260506073229 64 254 0.0 4.0 0.00 0.00 0.00 72 1009.5
20260506072725 64 147 2.0 9.0 0.00 0.00 0.00 71 1009.5
20260506072223 64 106 3.0 6.0 0.00 0.00 0.00 71 1009.7
20260506071721 64 55 3.0 5.0 0.00 0.00 0.00 71 1009.6
20260506071218 65 46 3.0 4.0 0.00 0.00 0.00 70 1009.4
20260506070715 65 331 2.0 5.0 0.00 0.00 0.00 70 1009.4
20260506070212 65 56 3.0 7.0 0.00 0.00 0.00 69 1009.4
20260506062149 65 115 1.0 10.0 0.00 0.00 0.00 67 1010.1
20260506061645 66 210 2.0 13.0 0.00 0.00 0.00 66 1010.0
20260506061143 66 79 3.0 5.0 0.00 0.00 0.00 66 1009.8
20260506060641 66 303 4.0 5.0 0.00 0.00 0.00 66 1010.0
20260506060138 66 99 0.0 5.0 0.00 0.00 0.00 65 1010.1
20260506051110 66 335 5.0 7.0 0.00 0.00 0.00 65 1010.2
20260506050608 66 27 0.0 4.0 0.00 0.00 0.00 64 1010.4
20260506050105 66 125 2.0 8.0 0.00 0.00 0.00 64 1010.2
20260506045058 66 4 2.0 9.0 0.00 0.00 0.00 65 1010.3
20260506044556 66 3 0.0 7.0 0.00 0.00 0.00 65 1010.4
20260506044052 66 205 3.0 9.0 0.00 0.00 0.00 65 1010.2
20260506043549 66 145 0.0 7.0 0.00 0.00 0.00 65 1010.5
20260506043048 66 32 4.0 5.0 0.00 0.00 0.00 65 1010.5
20260506042547 66 50 2.0 6.0 0.00 0.00 0.00 65 1010.3
20260506042044 66 43 7.0 7.0 0.00 0.00 0.00 65 1010.4
20260506041543 66 352 1.0 7.0 0.00 0.00 0.00 64 1010.1
20260506041039 66 43 1.0 8.0 0.00 0.00 0.00 65 1010.4
20260506040537 67 348 4.0 7.0 0.00 0.00 0.00 64 1010.3
20260506040032 67 281 2.0 7.0 0.00 0.02 0.02 64 1010.2
20260506035530 66 347 2.0 7.0 0.00 0.02 0.02 64 1010.2
20260506035026 67 26 2.0 11.0 0.00 0.02 0.02 63 1010.3
20260506034524 67 356 7.0 9.0 0.00 0.02 0.02 63 1010.1
20260506034021 67 4 4.0 6.0 0.00 0.02 0.02 63 1010.4
20260506033518 67 0 2.0 9.0 0.00 0.02 0.02 62 1010.4
20260506033015 67 332 2.0 6.0 0.00 0.02 0.02 61 1010.2
20260506032513 67 7 0.0 4.0 0.00 0.02 0.02 60 1010.3
20260506032009 68 15 4.0 11.0 0.00 0.02 0.02 58 1010.0
20260506031507 68 82 1.0 7.0 0.00 0.02 0.02 57 1010.4
20260506031004 68 312 2.0 6.0 0.00 0.02 0.02 56 1010.1
20260506030502 68 23 3.0 7.0 0.00 0.02 0.02 55 1010.2
20260506025958 69 4 5.0 9.0 0.00 0.02 0.02 54 1010.2
20260506025455 69 91 2.0 11.0 0.00 0.02 0.02 54 1010.2
20260506024952 69 296 4.0 6.0 0.00 0.02 0.02 53 1010.2
20260506024448 69 304 0.0 9.0 0.00 0.02 0.02 52 1010.3
20260506023944 69 61 1.0 5.0 0.00 0.02 0.02 52 1010.0
20260506023441 69 336 2.0 5.0 0.00 0.02 0.02 51 1009.9
20260506022938 69 144 2.0 6.0 0.00 0.02 0.02 52 1010.3
20260506022436 70 201 3.0 10.0 0.00 0.02 0.02 50 1010.2
20260506021934 70 142 0.0 6.0 0.00 0.02 0.02 50 1010.1
20260506021430 70 25 3.0 4.0 0.00 0.02 0.02 50 1010.0
20260506020927 70 274 0.0 5.0 0.00 0.02 0.02 50 1009.9
20260506020425 71 64 4.0 4.0 0.00 0.02 0.02 49 1010.2
20260506015922 71 75 1.0 15.0 0.00 0.02 0.02 49 1010.3
20260506015420 71 129 4.0 7.0 0.00 0.02 0.02 49 1010.2
20260506014916 71 238 4.0 14.0 0.00 0.02 0.02 48 1010.3
20260506014414 71 16 4.0 6.0 0.00 0.02 0.02 49 1009.7
20260506013910 71 244 2.0 9.0 0.00 0.02 0.02 49 1009.9
20260506013408 71 327 3.0 5.0 0.00 0.02 0.02 49 1010.0
20260506012904 71 225 1.0 7.0 0.00 0.02 0.02 49 1009.9
20260506012401 71 355 2.0 5.0 0.00 0.02 0.02 48 1009.7
20260506011858 71 78 5.0 8.0 0.00 0.02 0.02 48 1009.9
20260506011355 71 69 1.0 5.0 0.00 0.02 0.02 48 1009.7
20260506010852 72 287 2.0 9.0 0.00 0.02 0.02 47 1009.9
20260506010350 72 101 3.0 6.0 0.00 0.02 0.02 46 1009.6
20260506005847 72 71 4.0 13.0 0.00 0.02 0.02 45 1009.4
20260506005344 72 347 5.0 7.0 0.00 0.02 0.02 44 1009.7
20260506004839 72 359 4.0 6.0 0.00 0.02 0.02 44 1009.6
20260506004337 73 46 1.0 5.0 0.00 0.02 0.02 43 1009.3
20260506003833 73 76 1.0 5.0 0.00 0.02 0.02 43 1009.3
20260506003329 73 241 3.0 10.0 0.00 0.02 0.02 42 1009.4
20260506002826 73 289 0.0 4.0 0.00 0.02 0.02 42 1009.5
20260506002323 73 352 3.0 7.0 0.00 0.02 0.02 41 1009.2
20260506001818 73 117 0.0 6.0 0.00 0.02 0.02 41 1009.4
20260506001316 73 312 5.0 9.0 0.00 0.02 0.02 41 1009.4
20260506000812 74 237 3.0 10.0 0.00 0.02 0.02 40 1009.0
20260506000310 73 345 3.0 6.0 0.00 0.02 0.02 41 1009.1
20260505235807 73 119 4.0 8.0 0.00 0.02 0.02 40 1009.1
20260505235305 74 358 3.0 4.0 0.00 0.02 0.02 40 1009.0
20260505234801 74 8 2.0 4.0 0.00 0.02 0.02 40 1009.0
20260505234259 74 15 2.0 6.0 0.00 0.02 0.02 39 1008.9
20260505233755 75 2 3.0 10.0 0.00 0.02 0.02 39 1009.0
20260505233253 75 284 3.0 6.0 0.00 0.02 0.02 38 1009.1
20260505232750 75 357 0.0 2.0 0.00 0.02 0.02 38 1008.9
20260505232248 75 355 4.0 8.0 0.00 0.02 0.02 38 1009.0
20260505231744 75 341 5.0 10.0 0.00 0.02 0.02 38 1009.0